CDT,Max TemperatureF,Mean TemperatureF,Min TemperatureF,Max Dew PointF,MeanDew PointF,Min DewpointF,Max Humidity, Mean Humidity, Min Humidity, Max Sea Level PressureIn, Mean Sea Level PressureIn, Min Sea Level PressureIn, Max VisibilityMiles, Mean VisibilityMiles, Min VisibilityMiles, Max Wind SpeedMPH, Mean Wind SpeedMPH, Max Gust SpeedMPH,PrecipitationIn, CloudCover, Events, WindDirDegrees
2013-5-1,67,54,40,45,40,32,80,62,43,30.26,30.10,29.91,10,10,10,31,14,37,0.00,1,,3
2013-5-2,38,36,32,32,31,29,92,85,73,30.36,30.31,30.23,10,8,1,26,20,38,0.39,8,Rain-Snow,5
2013-5-3,37,34,32,36,32,30,93,91,88,30.29,30.09,29.95,10,6,1,18,13,24,1.13,8,Rain-Snow,8
2013-5-4,67,52,37,56,48,35,94,86,66,30.05,29.97,29.91,10,8,2,16,10,21,0.16,6,Rain,49
2013-5-5,72,60,47,53,48,43,95,74,38,30.09,30.04,30.00,10,8,0,13,4,17,0.00,2,Fog,340
2013-5-6,72,60,47,52,47,40,93,64,36,30.10,30.05,30.01,10,9,3,7,4,,0.00,1,,318
2013-5-7,75,61,47,49,43,35,92,53,23,30.08,30.03,29.99,10,10,7,8,3,,0.00,0,,321
2013-5-8,75,61,47,56,48,42,92,67,30,30.04,30.00,29.96,10,10,5,15,3,21,0.04,1,Rain,205
2013-5-9,65,60,55,58,55,52,92,85,73,29.96,29.88,29.82,10,9,2,16,6,25,0.30,5,Rain,90
2013-5-10,60,53,47,51,46,42,91,78,61,30.03,29.97,29.88,10,10,7,17,11,24,0.11,6,Rain,25
2013-5-11,54,45,37,46,30,14,90,51,22,30.16,30.05,29.92,10,10,10,29,13,38,0.00,0,,313
2013-5-12,57,44,32,32,24,18,81,47,24,30.23,30.18,30.12,10,10,10,17,8,25,0.00,0,,320
2013-5-13,70,50,32,43,33,25,92,53,24,30.17,30.06,29.86,10,10,5,16,4,25,0.00,0,,191
2013-5-14,90,70,52,54,48,41,82,61,29,29.85,29.79,29.75,10,10,10,14,10,20,0.00,0,,203
2013-5-15,81,72,62,49,42,36,61,32,20,29.93,29.88,29.84,10,9,3,18,10,22,0.00,0,,22
2013-5-16,84,69,55,52,47,41,88,48,23,29.95,29.90,29.84,10,10,7,14,3,18,0.00,0,,143
2013-5-17,81,71,61,63,58,54,88,62,40,29.98,29.94,29.88,10,10,7,14,7,22,0.00,0,,151
2013-5-18,84,72,60,64,59,53,92,65,42,30.00,29.94,29.84,10,8,2,16,7,23,0.00,1,,137
2013-5-19,83,72,62,70,65,59,93,76,57,29.88,29.75,29.58,10,7,1,23,12,33,1.35,2,Rain,153
2013-5-20,80,70,61,62,59,55,93,68,42,29.69,29.65,29.60,10,10,4,23,10,33,0.20,2,Rain,195
2013-5-21,75,67,60,59,56,51,90,72,50,29.69,29.65,29.58,10,10,5,18,10,28,0.00,3,,222
2013-5-22,68,62,57,56,53,50,93,81,63,29.81,29.71,29.66,10,9,3,17,5,23,0.06,5,Rain,261
2013-5-23,70,60,50,55,47,38,92,66,34,30.29,30.10,29.81,10,10,5,20,12,26,0.02,4,Rain,16
2013-5-24,70,56,42,46,40,34,85,56,27,30.43,30.34,30.23,10,10,3,14,6,21,0.00,0,Rain,128
2013-5-25,57,55,50,50,47,44,90,80,54,30.33,30.27,30.23,10,8,3,20,10,26,0.44,7,Rain,130
2013-5-26,57,54,50,55,49,46,94,88,81,30.23,30.14,30.03,10,7,2,28,12,43,0.68,7,Rain,108
2013-5-27,70,62,55,65,58,53,94,89,80,30.06,29.88,29.79,10,5,1,17,9,22,0.09,7,Rain,117
2013-5-28,77,68,60,68,63,58,95,84,69,29.81,29.73,29.69,10,7,1,15,7,20,0.34,5,Rain,190
2013-5-29,81,71,61,69,62,57,92,80,61,29.87,29.81,29.73,10,9,1,18,8,26,2.22,3,Rain,165
2013-5-30,77,70,62,67,63,58,90,77,59,29.76,29.71,29.61,10,10,3,23,14,31,0.05,2,Rain,171
2013-5-31,77,69,61,65,60,56,91,74,50,29.75,29.71,29.65,10,10,4,25,14,34,0.00,2,,186